Location: Newark
(44.2003°N, 3.2583°E)
Time: 09:53:12
(UTC+00:00)

SR - Pass Details

Date: 25 October 2019
Orbit: 574 x 882 km, 66.7° (Epoch: 13 November)

Event Time Altitude Azimuth Distance (km) Brightness Sun altitude
Rises 22:35:06 0° 267° (W) 3,170 - -55.9°
Reaches altitude 10° 22:38:21 10° 289° (WNW) 2,316 - -56.1°
Maximum altitude 22:41:37 16° 327° (NNW) 1,978 - -56.3°
Drops below altitude 10° 22:45:03 10° 5° (N) 2,438 - -56.6°
Sets 22:48:37 0° 26° (NNE) 3,425 - -56.8°
